Location: Unspecified
(0.0000°N, 0.0000°E)
Time: 14:54:37
(UTC+00:00)

COSMOS 1275 DEB - Pass Details

Date: 16 February 2026
Orbit: 902 x 1038 km, 83.0° (Epoch: 19 November)

Event Time Altitude Azimuth Distance (km) Brightness Sun altitude
Rises 04:51:20 0° 176° (S) 3,743 ? -20.2°
Reaches altitude 10° 04:53:56 10° 172° (S) 2,780 ? -19.6°
Maximum altitude 05:00:14 61° 93° (E) 1,113 ? -18.0°
Drops below altitude 10° 05:06:19 10° 14° (NNE) 2,698 ? -16.5°
Sets 05:08:48 0° 11° (N) 3,625 ? -15.9°
